OpenBCM V1.13 (Linux)

Packet Radio Mailbox

DB0FHN

[JN59NK Nuernberg]

 Login: GUEST





  
I0OJJ  > KEPS     13.03.25 06:12l 334 Lines 15768 Bytes #999 (0) @ AMSAT
BID : ORB25072.1
Read: DJ6UX GUEST
Subj: 2Line Orbital Elements 25072.AMSAT
Path: DB0FHN<DB0FFL<OE5XBL<OE6XPE<DB0ERF<DK0WUE<PD0LPM<PI8ZTM<PI8LAP<VE2PKT<
      I0OJJ<I0OJJ
Sent: 250313/0345z @:I0OJJ.ITA.EU [Rome] obcm1.08-6-g5b69

>From i0ojj%i0ojj.ita.eu@i0ojj.ampr.org Thu Mar 13 04:45:06 2025
Received: from i0ojj.ampr.org by i0ojj.ampr.org (JNOS2.0p.6) with SMTP
	id AA17027870 ; Thu, 13 Mar 2025 04:45:06 +0100
Message-Id: <ORB25072.1@i0ojj.bbs>
>From: i0ojj@i0ojj.ita.eu
X-JNOS-User-Port: Telnet   (i0ojj @ 44.134.109.10)  -> Sending message

From: I0OJJ @ I0OJJ.ITA.EU (Gustavo)
To:   KEPS @ AMSAT
X-Info: This message was generated automatically


QST de W1STR

AMSAT Orbital Elements for Amateur Satellites in TLE Format
>From Orbital Analysis Office
New England Sci-Tech STEM Education Center
Natick, MA March 13, 2025
To all radio amateurs


These element sets describe the orbits of various satellites 
in use by the amateur radio community. For details see:
www.amsat.org/keplerian-elements-formats/

A daily update of element sets is available at:
www.amsat.org/tle/daily-bulletin.txt
or without bulletin text:
www.amsat.org/tle/dailytle.txt


AO-07
1 07530U 74089B   25071.60334215 -.00000025  00000-0  13191-3 0  9998
2 07530 101.9951  74.9154 0011886 292.5392 185.2166 12.53687094302671
UO-11
1 14781U 84021B   25071.84071932  .00003586  00000-0  38797-3 0  9994
2 14781  97.7441  40.0444 0006066 271.1503  88.9019 14.88880932209432
AO-27
1 22825U 93061C   25071.68413679  .00000260  00000-0  11647-3 0  9997
2 22825  98.7483 132.7542 0008646  21.0424 339.1113 14.30746318641279
FO-29
1 24278U 96046B   25071.73328845  .00000006  00000-0  43692-4 0  9997
2 24278  98.5850 337.2850 0349360 212.6071 145.3060 13.53239757411002
NOAA-15
1 25338U 98030A   25071.82971441  .00000351  00000-0  16231-3 0  9997
2 25338  98.5454  99.0586 0009136 257.1621 102.8539 14.26906059395746
GO-32
1 25397U 98043D   25071.54531597  .00000220  00000-0  11522-3 0  9992
2 25397  98.9620  48.8478 0002348  97.6106 262.5339 14.24269655385614
ISS
1 25544U 98067A   25071.85780725  .00016892  00000-0  30385-3 0  9995
2 25544  51.6352  64.1471 0006423  14.4841 345.6331 15.49936208500225
NO-44
1 26931U 01043C   25071.85661439  .00000483  00000-0  21220-3 0  9991
2 26931  67.0531 357.2239 0005699 266.6232  93.4218 14.31650845224565
SO-50
1 27607U 02058C   25071.51301724  .00002515  00000-0  33564-3 0  9992
2 27607  64.5530 115.3820 0046026 355.8221   4.2493 14.81109527196030
CO-55
1 27844U 03031E   25071.01893432  .00000702  00000-0  32562-3 0  9997
2 27844  98.6794  80.4406 0010887  88.2238 272.0188 14.23863913125890
CO-57
1 27848U 03031J   25071.48837503  .00000620  00000-0  29347-3 0  9995
2 27848  98.6822  80.9763 0010771 102.0370 258.2016 14.23218637125692
RS-22
1 27939U 03042A   25071.84645292  .00002874  00000-0  46684-3 0  9996
2 27939  98.3178 239.2131 0010557 292.4516 174.4262 14.71914467147772
NOAA-18
1 28654U 05018A   25071.79093902  .00000382  00000-0  22595-3 0  9992
2 28654  98.8468 152.2564 0014372  26.0306 334.1586 14.13538836 21206
CO-58
1 28895U 05043F   25071.87297291  .00004568  00000-0  76217-3 0  9993
2 28895  98.2331 215.2174 0014346 224.9606 135.0439 14.70384763 34138
CO-65
1 32785U 08021C   25071.44100518  .00010273  00000-0  77094-3 0  9997
2 32785  97.7776  42.0837 0011884 140.6621 219.5469 15.02775916915684
AAUSAT2
1 32788U 08021F   25071.47554595  .00153918  00000-0  22945-2 0  9999
2 32788  97.6058  64.6341 0003756  96.8331 263.3349 15.54541020919398
CO-66
1 32791U 08021J   25071.40689787  .00022556  00000-0  12054-2 0  9991
2 32791  97.7219  49.6991 0007092 105.1942 255.0074 15.15082896916977
RS-30
1 32953U 08025A   25071.79430668  .00000033  00000-0  16780-3 0  9996
2 32953  82.4986 282.4127 0018718 238.4654 121.4598 12.43159875762509
NOAA-19
1 33591U 09005A   25071.85364411  .00000365  00000-0  21859-3 0  9994
2 33591  99.0077 136.0265 0012869 252.5643 107.4122 14.13306497829577
SRMSAT
1 37841U 11058D   25071.08669921  .00000594  00000-0  17915-3 0  9998
2 37841  19.9733 336.0955 0011841 160.2945 228.7143 14.11380749692451
ZACUBE-1
1 39417U 13066B   25071.83246347  .00012310  00000-0  11036-2 0  9992
2 39417  97.7712  29.4488 0045159 351.7062   8.3407 14.95131429611641
Delfi-N3xt
1 39428U 13066N   25071.83748145  .00017728  00000-0  18831-2 0  9995
2 39428  97.8370 350.5930 0086154 293.3050  65.9116 14.86339191606064
GOMX-1
1 39430U 13066Q   25071.84099224  .00004251  00000-0  66855-3 0  9993
2 39430  97.6968 295.9175 0135057 116.0902 245.4275 14.67030758602394
LO-74
1 39440U 13066AA  25071.59498321  .00008624  00000-0  89610-3 0  9999
2 39440  97.8416  16.8894 0065645 112.6537 248.1639 14.88541683608199
AO-73
1 39444U 13066AE  25071.84415157  .00019207  00000-0  15166-2 0  9990
2 39444  97.7585  33.6478 0040489 329.0697  30.8142 15.00083796610867
DTUSAT-2
1 40030U 14033W   25070.87683015  .00012878  00000-0  88426-3 0  9997
2 40030  98.0455  38.5315 0010202  17.8259 342.3322 15.06078889583391
EO-80
1 40032U 14033Y   25071.89826703  .00016319  00000-0  11152-2 0  9990
2 40032  98.0358  39.3734 0006807 313.9987  46.0677 15.06220151583531
LILACSAT-2
1 40908U 15049K   25071.84337563  .00020850  00000-0  59822-3 0  9998
2 40908  97.5143  90.1827 0011969 114.9753 245.2735 15.35826928524597
IO-86
1 40931U 15052B   25038.81889873  .00001817  00000-0  15548-3 0  9993
2 40931   6.0001 108.1159 0012838 187.7041 172.2889 14.78568669506492
Horyu-4
1 41340U 16012D   25071.88402731  .00038707  00000-0  12376-2 0  9996
2 41340  30.9992   6.2206 0007919 231.0593 128.9346 15.31196751499151
Lapan A3
1 41603U 16040E   25071.84875730  .00006753  00000-0  24312-3 0  9998
2 41603  97.1395  79.9809 0009876 217.5399 142.5153 15.28849317484227
CAS-2T
1 41847U 16066G   25071.25474403  .00003040  00000-0  43848-3 0  9994
2 41847  98.4271 146.4871 0348602  88.7053 275.4041 14.43114701438130
CAS-4B
1 42759U 17034B   25071.57269788  .00065533  00000-0  11135-2 0  9994
2 42759  43.0103 127.5960 0016650  24.3437 335.8207 15.50429688428720
CAS-4A
1 42761U 17034D   25071.85123982  .00074263  00000-0  12297-2 0  9993
2 42761  43.0140 123.8048 0017841  32.5898 327.6060 15.51081607428783
TechnoSat
1 42829U 17042E   25071.73341571  .00006796  00000-0  54036-3 0  9994
2 42829  97.3894 244.7164 0012333 220.7762 139.2540 15.00675988417390
AO-91
1 43017U 17073E   25071.89517648  .00016173  00000-0  85302-3 0  9995
2 43017  97.5429 304.9611 0181956 108.0944 254.0194 15.02390835395887
S-Net D
1 43186U 18014G   25071.44150377  .00008841  00000-0  54281-3 0  9996
2 43186  97.5712 335.3036 0009813 159.3319 200.8309 15.10292530388919
S-Net B
1 43187U 18014H   25071.31331012  .00008662  00000-0  53210-3 0  9992
2 43187  97.5722 335.1442 0010678 156.0299 204.1429 15.10274230388896
S-Net A
1 43188U 18014J   25071.44218353  .00008841  00000-0  54267-3 0  9991
2 43188  97.5726 335.4104 0010539 156.3532 203.8184 15.10296332388912
S-Net C
1 43189U 18014K   25071.44802098  .00008820  00000-0  54153-3 0  9998
2 43189  97.5744 335.4149 0012342 150.5639 209.6288 15.10272613387464
Ten-Koh
1 43677U 18084G   25071.49032866  .00006352  00000-0  51866-3 0  9996
2 43677  98.0945 240.1930 0010215 199.9752 160.1071 14.99747342346889
PO-101
1 43678U 18084H   25071.88500415  .00005993  00000-0  51821-3 0  9991
2 43678  98.0954 244.6871 0008044 212.9030 147.1691 14.97563549347107
QO-100
1 43700U 18090A   25071.83287862  .00000132  00000-0  00000+0 0  9996
2 43700   0.0194 148.2976 0001413 228.3904 119.6280  1.00273491 23294
MinXSS-2
1 43758U 18099A   25071.62205873  .00024676  00000-0  10954-2 0  9998
2 43758  97.5132 137.5637 0014026 110.5001 249.7741 15.21463811343421
AO-95
1 43770U 18099N   25071.68417466  .00016361  00000-0  88677-3 0  9991
2 43770  97.5048 130.8416 0012326 155.8653 204.3158 15.14603670343080
RANGE-A
1 43773U 18099R   25071.71658421  .00008232  00000-0  54237-3 0  9999
2 43773  97.4615 122.7092 0013106 132.8576 227.3755 15.07687830342829
MOVE-II
1 43780U 18099Y   25071.18847741  .00100120  00000-0  19958-2 0  9992
2 43780  97.4781 142.1381 0003969 134.8415 225.3157 15.46504641343868
SNUSat 2
1 43782U 18099AA  25071.10055376  .00013250  00000-0  76466-3 0  9996
2 43782  97.4737 127.7190 0013882 104.1329 256.1445 15.12384739342966
SnugLite
1 43784U 18099AC  25071.40249010  .00016191  00000-0  87163-3 0  9994
2 43784  97.4547 127.4202 0005231 107.7266 252.4537 15.14898974343129
ITASat 1
1 43786U 18099AE  25071.87599511  .00014048  00000-0  84022-3 0  9991
2 43786  97.4696 128.2305 0016073 148.4665 211.7531 15.11052258343058
EAGLET 1
1 43790U 18099AJ  25071.60075853  .00007632  00000-0  50198-3 0  9993
2 43790  97.4894 128.1787 0013856 131.1473 229.0953 15.07769094342651
ESEO
1 43792U 18099AL  25071.62053374  .00004394  00000-0  33895-3 0  9998
2 43792  97.4598 122.6047 0011930 103.9978 256.2574 15.02023362342466
CSIM
1 43793U 18099AM  25071.23551086  .00116520  00000-0  22809-2 0  9996
2 43793  97.4963 144.2379 0005406 100.4128 259.7731 15.46962691343718
JO-97
1 43803U 18099AX  25071.61770129  .00019817  00000-0  98576-3 0  9997
2 43803  97.4795 131.6131 0009315  99.0881 261.1407 15.17618966343269
Suomi 100
1 43804U 18099AY  25071.43556522  .00018031  00000-0  94686-3 0  9992
2 43804  97.4862 130.9524 0014427  99.6188 260.6675 15.15679051343181
ISAT
1 43879U 18111D   25071.54704245  .00030890  00000-0  12469-2 0  9993
2 43879  97.6023 344.2557 0011412 138.3197 221.8911 15.24669980338087
UWE-4
1 43880U 18111E   25071.25491946  .00023366  00000-0  10299-2 0  9993
2 43880  97.5958 342.9959 0014014 153.1784 207.0179 15.21719865340028
Sparrow
1 43881U 18111F   25071.20001691  .00030850  00000-0  12117-2 0  9990
2 43881  97.6148 346.4629 0007599 171.2595 188.8776 15.25620162338138
